Location: Bli��� Lhota
(48.7570°N, 14.0120°E)
Time: 21:50:48
(UTC+00:00)

Meteor 1-24 Rocket - Pass Details

Date: 18 September 2020
Orbit: 790 x 927 km, 81.2° (Epoch: 31 October)

Event Time Altitude Azimuth Distance (km) Brightness Sun altitude
Rises 19:05:19 0° 352° (N) 3,343 7.3 -19.2°
Reaches altitude 10° 19:07:47 10° 358° (N) 2,423 6.4 -19.6°
Maximum altitude 19:13:04 47° 72° (ENE) 1,104 4.0 -20.3°
Enters shadow 19:14:18 40° 108° (ESE) 1,219 4.0 -20.5°
